Danville, IN

4:58 AM EST on December 11, 2017 (GMT -0500)
Vermilion County

Weather History for KDNV - April, 2014

Change the Weather History Date:

Tuesday, April 8, 2014

  Actual Average (KLAF) Record (KLAF)
Temperature  
Mean Temperature 47 °F -  
Max Temperature 56 °F 56 °F 82 °F (2001)
Min Temperature 39 °F 35 °F 20 °F (1972)
Degree Days  
Heating Degree Days 18    
Moisture  
Dew Point 41 °F    
Average Humidity 82    
Maximum Humidity 94    
Minimum Humidity 63    
Precipitation  
Precipitation 0.01 in - - ()
Sea Level Pressure  
Sea Level Pressure 29.75 in    
Wind  
Wind Speed 7 mph (NW)    
Max Wind Speed 17 mph    
Max Gust Speed 18 mph    
Visibility 9 miles    
Events Rain    
Averages and records for this station are not official NWS values.
T = Trace of Precipitation, MM = Missing Value Source: NWS Daily Summary

Daily Weather History Graph

Daily Weather History Graph

Search for Another Location

Airport or City:

Trip Planner

Search our weather history database for the weather conditions in past years. The results will help you decide how hot, cold, wet, or windy it might be!

Date:

Astronomy

Apr. 08, 2014 Rise Set
Actual Time 6:23 AM CDT 7:22 PM CDT
Civil Twilight 5:55 AM CDT 7:49 PM CDT
Nautical Twilight 5:22 AM CDT 8:22 PM CDT
Astronomical Twilight 4:48 AM CDT 8:57 PM CDT
Moon 1:14 PM CDT (4/8) 2:36 AM CDT (4/8)
Length of Visible Light 13h 54m
Length of Day
12h 58m
Waxing Gibbous, 63% of the Moon is Illuminated
Apr 8
Waxing Gibbous
Apr 15
Full
Apr 22
Last Quarter
Apr 29
New
May 6
First Quarter

Hourly Weather History & Observations

Time (CDT) Temp. Windchill Dew Point Humidity Pressure Visibility Wind Dir Wind Speed Gust Speed Precip Events Conditions
12:15 AM 40.8 °F - 37.4 °F 88% 29.66 in 7.0 mi Calm Calm - N/A   Overcast
12:35 AM 39.7 °F 36.5 °F 37.6 °F 92% 29.66 in 7.0 mi SW 4.6 mph - N/A   Overcast
1:15 AM 41.0 °F 36.4 °F 38.3 °F 90% 29.65 in 7.0 mi WSW 6.9 mph - N/A   Overcast
1:35 AM 41.0 °F 37.1 °F 38.3 °F 90% 29.65 in 10.0 mi WSW 5.8 mph - N/A   Overcast
1:55 AM 40.5 °F 36.5 °F 37.4 °F 89% 29.65 in 10.0 mi WSW 5.8 mph - N/A   Mostly Cloudy
2:15 AM 40.1 °F 35.3 °F 36.9 °F 88% 29.65 in 10.0 mi WSW 6.9 mph - N/A   Scattered Clouds
2:35 AM 43.0 °F 36.8 °F 38.8 °F 85% 29.65 in 10.0 mi West 11.5 mph - N/A   Scattered Clouds
2:55 AM 45.0 °F 38.2 °F 39.6 °F 81% 29.65 in 10.0 mi West 15.0 mph - N/A   Overcast
3:15 AM 44.2 °F 38.8 °F 40.1 °F 85% 29.65 in 10.0 mi West 10.4 mph 18.4 mph N/A   Mostly Cloudy
3:35 AM 44.2 °F 38.4 °F 40.1 °F 85% 29.65 in 10.0 mi West 11.5 mph - N/A   Overcast
3:55 AM 44.6 °F 39.2 °F 39.9 °F 84% 29.65 in 10.0 mi West 10.4 mph - N/A   Overcast
4:15 AM 44.2 °F 38.8 °F 40.1 °F 85% 29.65 in 7.0 mi West 10.4 mph - N/A   Overcast
4:35 AM 44.1 °F 39.0 °F 40.5 °F 87% 29.65 in 7.0 mi West 9.2 mph - N/A   Overcast
4:55 AM 41.9 °F 37.5 °F 39.4 °F 91% 29.65 in 7.0 mi WSW 6.9 mph - N/A   Scattered Clouds
5:15 AM 41.0 °F 37.1 °F 38.8 °F 92% 29.65 in 7.0 mi WSW 5.8 mph - N/A   Scattered Clouds
5:35 AM 41.4 °F 37.6 °F 39.4 °F 93% 29.65 in 7.0 mi West 5.8 mph - N/A   Mostly Cloudy
5:55 AM 39.9 °F 35.1 °F 38.1 °F 93% 29.66 in 5.0 mi West 6.9 mph - N/A   Mostly Cloudy
6:15 AM 40.1 °F 36.1 °F 38.5 °F 94% 29.67 in 7.0 mi West 5.8 mph - N/A   Overcast
6:35 AM 40.3 °F 35.5 °F 38.7 °F 94% 29.68 in 5.0 mi West 6.9 mph - N/A   Overcast
6:55 AM 41.5 °F 35.9 °F 39.6 °F 93% 29.68 in 4.0 mi West 9.2 mph - N/A   Mostly Cloudy
7:15 AM 41.5 °F 37.8 °F 39.6 °F 93% 29.69 in 4.0 mi West 5.8 mph - N/A   Scattered Clouds
7:35 AM 42.1 °F 38.4 °F 40.5 °F 94% 29.69 in 4.0 mi WNW 5.8 mph - N/A   Mostly Cloudy
7:55 AM 43.3 °F 38.1 °F 41.4 °F 93% 29.70 in 5.0 mi NW 9.2 mph - N/A   Mostly Cloudy
8:15 AM 44.8 °F 39.4 °F 42.4 °F 91% 29.69 in 5.0 mi NW 10.4 mph - N/A   Clear
8:35 AM 46.4 °F 41.9 °F 43.3 °F 89% 29.70 in 5.0 mi NW 9.2 mph - N/A   Clear
8:55 AM 47.8 °F - 43.9 °F 86% 29.70 in 7.0 mi NW 10.4 mph - N/A   Clear
9:15 AM 48.7 °F - 44.4 °F 85% 29.71 in 7.0 mi NNW 9.2 mph - N/A   Clear
9:35 AM 49.8 °F - 45.1 °F 84% 29.71 in 7.0 mi NW 9.2 mph - N/A   Scattered Clouds
9:55 AM 50.4 °F - 45.7 °F 84% 29.72 in 7.0 mi NW 11.5 mph - N/A   Mostly Cloudy
10:15 AM 50.9 °F - 45.5 °F 82% 29.72 in 7.0 mi NNW 9.2 mph - N/A   Mostly Cloudy
10:35 AM 50.9 °F - 46.0 °F 83% 29.73 in 7.0 mi NNW 9.2 mph - N/A   Overcast
10:55 AM 50.9 °F - 45.7 °F 82% 29.74 in 7.0 mi NW 9.2 mph - N/A   Overcast
11:15 AM 51.6 °F - 45.1 °F 79% 29.74 in 10.0 mi WNW 10.4 mph - N/A   Overcast
11:35 AM 52.2 °F - 45.3 °F 78% 29.75 in 10.0 mi NW 10.4 mph - N/A   Overcast
11:55 AM 53.2 °F - 45.7 °F 76% 29.75 in 10.0 mi NNW 10.4 mph - N/A   Overcast
12:15 PM 53.8 °F - 44.8 °F 72% 29.75 in 10.0 mi NNW 10.4 mph 16.1 mph N/A   Overcast
12:35 PM 54.9 °F - 44.4 °F 68% 29.75 in 10.0 mi NNW 12.7 mph 17.3 mph N/A   Mostly Cloudy
12:55 PM 55.8 °F - 43.9 °F 64% 29.75 in 10.0 mi North 10.4 mph - N/A   Mostly Cloudy
1:15 PM 55.6 °F - 43.2 °F 63% 29.74 in 10.0 mi North 11.5 mph - N/A   Mostly Cloudy
1:35 PM 54.7 °F - 44.1 °F 67% 29.74 in 10.0 mi NNE 8.1 mph - N/A   Overcast
1:55 PM 51.6 °F - 43.9 °F 75% 29.75 in 7.0 mi North 8.1 mph 11.5 mph 0.01 in Rain Light Rain
2:15 PM 54.7 °F - 45.3 °F 71% 29.74 in 10.0 mi North 9.2 mph - N/A   Overcast
2:35 PM 54.3 °F - 45.0 °F 71% 29.74 in 10.0 mi NNE 5.8 mph - N/A Rain Light Rain
2:55 PM 52.3 °F - 42.6 °F 69% 29.75 in 10.0 mi NNE 12.7 mph - N/A   Overcast
3:15 PM 51.1 °F - 43.3 °F 75% 29.75 in 10.0 mi NE 8.1 mph - N/A Rain Light Rain
3:35 PM 51.8 °F - 44.6 °F 76% 29.75 in 10.0 mi NNE 17.3 mph - N/A Rain Rain
3:55 PM 48.6 °F - 43.0 °F 81% 29.76 in 10.0 mi NNE 11.5 mph - N/A Rain Light Rain
4:15 PM 49.1 °F - 44.1 °F 83% 29.76 in 10.0 mi NNE 9.2 mph - N/A   Overcast
4:35 PM 51.6 °F - 44.6 °F 77% 29.77 in 10.0 mi NE 9.2 mph - N/A   Mostly Cloudy
4:55 PM 51.6 °F - 41.9 °F 69% 29.77 in 10.0 mi NE 5.8 mph - N/A   Mostly Cloudy
5:15 PM 52.9 °F - 43.2 °F 70% 29.78 in 10.0 mi North 5.8 mph - N/A   Mostly Cloudy
5:35 PM 52.9 °F - 42.6 °F 68% 29.78 in 10.0 mi NNE 3.5 mph - N/A   Mostly Cloudy
5:55 PM 53.6 °F - 42.1 °F 65% 29.79 in 10.0 mi NNW 3.5 mph - N/A   Scattered Clouds
6:15 PM 53.6 °F - 43.0 °F 67% 29.80 in 10.0 mi North 4.6 mph - N/A   Clear
6:35 PM 49.5 °F - 41.5 °F 74% 29.81 in 10.0 mi NNE 12.7 mph - N/A   Mostly Cloudy
6:55 PM 48.4 °F - 41.0 °F 76% 29.83 in 10.0 mi NNE 8.1 mph - N/A   Scattered Clouds
7:15 PM 48.7 °F - 40.5 °F 73% 29.83 in 10.0 mi NE 4.6 mph - N/A   Mostly Cloudy
7:35 PM 47.8 °F - 40.5 °F 76% 29.83 in 10.0 mi ENE 3.5 mph - N/A   Mostly Cloudy
7:55 PM 47.3 °F - 39.9 °F 76% 29.84 in 10.0 mi Calm Calm - N/A   Scattered Clouds
8:15 PM 45.7 °F - 39.9 °F 80% 29.85 in 10.0 mi Calm Calm - N/A   Scattered Clouds
8:35 PM 44.6 °F - 39.6 °F 82% 29.86 in 10.0 mi Calm Calm - N/A   Scattered Clouds
8:55 PM 43.0 °F - 39.7 °F 88% 29.87 in 10.0 mi Calm Calm - N/A   Clear
9:15 PM 43.7 °F 40.3 °F 39.2 °F 84% 29.87 in 10.0 mi West 5.8 mph - N/A   Clear
9:35 PM 42.6 °F 39.9 °F 38.5 °F 85% 29.88 in 10.0 mi West 4.6 mph - N/A   Clear
9:55 PM 42.6 °F 39.9 °F 38.5 °F 85% 29.88 in 10.0 mi West 4.6 mph - N/A   Clear
10:15 PM 43.0 °F - 38.3 °F 84% 29.88 in 10.0 mi Calm Calm - N/A   Clear
10:35 PM 39.9 °F 37.8 °F 36.9 °F 89% 29.88 in 10.0 mi West 3.5 mph - N/A   Clear
10:55 PM 40.1 °F - 38.3 °F 93% 29.89 in 10.0 mi Calm Calm - N/A   Clear
11:15 PM 40.6 °F - 36.7 °F 86% 29.90 in 10.0 mi Calm Calm - N/A   Clear
11:35 PM 41.0 °F - 37.0 °F 86% 29.90 in 10.0 mi Calm Calm - N/A   Clear
11:55 PM 40.6 °F - 37.2 °F 88% 29.90 in 10.0 mi Calm Calm - N/A   Clear